This demonstration page uses our WeatherBlox Daily Observations layout. Learn more.

Left ArrowRight Arrow

Hourly Observations for March 31, 2018

Temp ( °F °C ) Dew Point ( °F °C ) Humidity (%) Winds ( mph kmh ) Pressure ( in mb ) Visibility ( mi km ) Precip ( " mm )
12:54 am 00:54 Mostly Cloudy 53 11.7 32 0 45 45 S 21 33 29.85 1011 10 16 0.00 0.00
1:54 am 01:54 Mostly Clear 53 11.7 34 1.1 48 48 SSW 18 30 29.84 1011 10 16 0.00 0.03
2:54 am 02:54 Clear 53 11.7 34 1.1 48 48 SW 15 24 29.82 1010 10 16 0.00 0.03
3:54 am 03:54 Partly Cloudy 52 11.1 36 2.2 55 55 SSW 20 31 29.80 1009 10 16 0.00 0.00
4:29 am 04:29 Mostly Cloudy 52 11.1 37 2.8 57 57 W 9 15 29.88 1012 10 16 0.00 0.00
4:54 am 04:54 Clear 52 11.1 38 3.3 59 59 WSW 15 24 29.88 1012 10 16 0.00 0.00
5:54 am 05:54 Clear 50 10 39 3.9 66 66 WSW 12 19 29.89 1012 10 16 0.00 0.00
6:54 am 06:54 Clear 48 8.9 36 2.2 63 63 NNW 24 39 29.96 1015 10 16 0.00 0.00
7:54 am 07:54 Partly Cloudy 46 7.8 35 1.7 66 66 NNW 25 41 30.03 1017 10 16 0.00 0.00
8:01 am 08:01 Mostly Cloudy 46 7.8 35 1.7 66 66 NNW 24 39 30.06 1018 10 16 0.00 0.00
8:54 am 08:54 Cloudy 43 6.1 33 0.6 68 68 N 28 44 30.08 1019 10 16 0.00 0.00
9:54 am 09:54 Cloudy 37 2.8 26 -3.3 65 65 N 29 46 30.15 1021 10 16 0.00 0.03
10:54 am 10:54 Cloudy 35 1.7 24 -4.4 64 64 N 26 43 30.23 1024 10 16 0.00 0.00
11:54 am 11:54 Cloudy 35 1.7 23 -5 61 61 N 26 43 30.27 1025 10 16 0.00 0.00
12:54 pm 12:54 Cloudy 37 2.8 22 -5.6 54 54 N 22 35 30.27 1025 10 16 0.00 0.00
1:54 pm 13:54 Partly Cloudy 39 3.9 21 -6.1 48 48 NNW 29 46 30.27 1025 10 16 0.00 0.00
2:54 pm 14:54 Sunny 39 3.9 19 -7.2 45 45 N 24 39 30.28 1026 10 16 0.00 0.03
3:54 pm 15:54 Sunny 39 3.9 18 -7.8 43 43 N 20 31 30.29 1026 10 16 0.00 0.00
4:54 pm 16:54 Sunny 39 3.9 18 -7.8 43 43 N 22 35 30.28 1025 10 16 0.00 0.00
5:54 pm 17:54 Sunny 39 3.9 17 -8.3 41 41 NNE 24 39 30.29 1026 10 16 0.00 0.00
6:54 pm 18:54 Mostly Cloudy 35 1.7 15 -9.4 44 44 N 21 33 30.31 1027 10 16 0.00 0.00
7:54 pm 19:54 Cloudy 33 0.6 9 -12.8 36 36 N 20 31 30.34 1027 10 16 0.00 0.00
8:54 pm 20:54 Cloudy 32 0 6 -14.4 33 33 N 18 30 30.37 1028 10 16 0.00 0.00
9:54 pm 21:54 Partly Cloudy 30 -1.1 7 -13.9 38 38 N 17 28 30.40 1030 10 16 0.00 0.00
10:54 pm 22:54 Clear 28 -2.2 9 -12.8 44 44 N 10 17 30.41 1030 10 16 0.00 0.00
11:54 pm 23:54 Clear 26 -3.3 11 -11.7 53 53 NNE 9 15 30.42 1030 10 16 0.00 0.00

Powered by AerisWeather